Greenville, MS

7:03 AM CDT on April 26, 2017 (GMT -0500)
Mid Delta Regional

Weather History for KGLH - December, 2014

Change the Weather History Date:

Thursday, December 25, 2014

  Actual Average Record
Temperature  
Mean Temperature 44 °F 43 °F  
Max Temperature 56 °F 52 °F 81 °F (1942)
Min Temperature 31 °F 35 °F 9 °F (1963)
Degree Days  
Heating Degree Days 21 22  
Month to date heating degree days 404 490  
Since 1 July heating degree days 944 952  
Cooling Degree Days 0 0  
Month to date cooling degree days 0 0  
Year to date cooling degree days 2177 2186  
Moisture  
Dew Point 35 °F    
Average Humidity 72    
Maximum Humidity 96    
Minimum Humidity 47    
Precipitation  
Precipitation 0.00 in 0.17 in 3.33 in (1926)
Month to date precipitation 1.66 4.74  
Year to date precipitation 50.58 51.76  
Sea Level Pressure  
Sea Level Pressure 30.17 in    
Wind  
Wind Speed 9 mph (South)    
Max Wind Speed 21 mph    
Max Gust Speed 25 mph    
Visibility 10 miles    
Events      
T = Trace of Precipitation, MM = Missing Value Source: NWS Daily Summary

Daily Weather History Graph

Daily Weather History Graph

Search for Another Location

Airport or City:

Trip Planner

Search our weather history database for the weather conditions in past years. The results will help you decide how hot, cold, wet, or windy it might be!

Date:

Astronomy

Dec. 25, 2014 Rise Set
Actual Time 7:05 AM CST 5:02 PM CST
Civil Twilight 6:38 AM CST 5:29 PM CST
Nautical Twilight 6:07 AM CST 6:00 PM CST
Astronomical Twilight 5:36 AM CST 6:31 PM CST
Moon 9:49 AM CST (12/25) 9:24 PM CST (12/25)
Length of Visible Light 10h 51m
Length of Day
9h 56m
Waxing Crescent, 18% of the Moon is Illuminated
Dec 25
Waxing Crescent
Dec 28
First Quarter
Jan 4
Full
Jan 13
Last Quarter
Jan 20
New

Hourly Weather History & Observations

Time (CST) Temp. Windchill Dew Point Humidity Pressure Visibility Wind Dir Wind Speed Gust Speed Precip Events Conditions
12:53 AM 43.0 °F 38.2 °F 35.1 °F 74% 30.10 in 10.0 mi West 8.1 mph - N/A   Overcast
1:53 AM 37.0 °F 33.3 °F 32.0 °F 82% 30.11 in 10.0 mi SSW 4.6 mph - N/A   Clear
2:53 AM 36.0 °F 31.1 °F 32.0 °F 86% 30.14 in 10.0 mi SW 5.8 mph - N/A   Clear
3:53 AM 35.1 °F 31.0 °F 32.0 °F 89% 30.13 in 10.0 mi South 4.6 mph - N/A   Clear
4:53 AM 33.1 °F 26.9 °F 30.0 °F 89% 30.14 in 10.0 mi South 6.9 mph - N/A   Clear
5:53 AM 33.1 °F 27.7 °F 30.0 °F 89% 30.19 in 10.0 mi SSW 5.8 mph - N/A   Clear
6:53 AM 33.1 °F 26.9 °F 30.0 °F 89% 30.21 in 10.0 mi South 6.9 mph - N/A   Clear
7:53 AM 34.0 °F 27.2 °F 32.0 °F 92% 30.24 in 9.0 mi South 8.1 mph - N/A   Clear
8:53 AM 42.1 °F 36.1 °F 36.0 °F 79% 30.23 in 10.0 mi South 10.4 mph - N/A   Clear
9:53 AM 46.0 °F 40.6 °F 37.0 °F 71% 30.23 in 10.0 mi South 11.5 mph - N/A   Clear
10:53 AM 50.0 °F - 37.9 °F 63% 30.22 in 10.0 mi South 11.5 mph - N/A   Clear
11:53 AM 52.0 °F - 37.9 °F 59% 30.22 in 10.0 mi South 12.7 mph - N/A   Clear
12:53 PM 55.0 °F - 37.0 °F 51% 30.20 in 10.0 mi South 16.1 mph - N/A   Clear
1:53 PM 55.9 °F - 37.0 °F 49% 30.19 in 10.0 mi South 17.3 mph - N/A   Clear
2:53 PM 55.9 °F - 36.0 °F 47% 30.15 in 10.0 mi South 15.0 mph - N/A   Clear
3:53 PM 55.0 °F - 37.0 °F 51% 30.14 in 10.0 mi South 12.7 mph - N/A   Clear
4:53 PM 51.1 °F - 36.0 °F 56% 30.14 in 10.0 mi South 9.2 mph - N/A   Clear
5:53 PM 48.0 °F - 36.0 °F 63% 30.15 in 10.0 mi SSE 6.9 mph - N/A   Clear
6:53 PM 48.0 °F - 37.0 °F 66% 30.16 in 10.0 mi SSE 8.1 mph - N/A   Clear
7:53 PM 42.1 °F 37.1 °F 35.1 °F 76% 30.17 in 10.0 mi South 8.1 mph - N/A   Clear
8:53 PM 42.1 °F 37.7 °F 36.0 °F 79% 30.17 in 10.0 mi SE 6.9 mph - N/A   Clear
9:53 PM 42.1 °F 37.1 °F 36.0 °F 79% 30.18 in 10.0 mi SSE 8.1 mph - N/A   Clear
10:53 PM 41.0 °F 35.8 °F 35.1 °F 79% 30.18 in 10.0 mi SSE 8.1 mph - N/A   Clear
11:53 PM 41.0 °F 37.1 °F 35.1 °F 79% 30.18 in 10.0 mi SSE 5.8 mph - N/A   Clear